When you browse on this site, cookies collect data to enhance your experience and personalize the content and advertising you see.
Visit our Privacy Policy to learn more. By continuing to use the site, you agree to this use of cookies and data.
  • In Hungary
  • List of Countries
  • For 7 days
  • Water Temperature
  • Satellite Maps
  • Weather Map
  • News
  • Weather Widgets
  • user-avatar
    Login

    Hourly Weather Kochkor-Ata

    Today, 16 February, Saturday

    Time Temperature Precipitation Wind Pressure Humidity
    00:00 +4°C° 0 mm 2 mps 711 mmHg 61%
    01:00 +3°C° 0 mm 2 mps 711 mmHg 60%
    02:00 +3°C° 0 mm 2 mps 711 mmHg 59%
    03:00 +3°C° 0 mm 2 mps 712 mmHg 58%
    04:00 +3°C° 0 mm 2 mps 712 mmHg 57%
    05:00 +2°C° 0 mm 3 mps 712 mmHg 52%
    06:00 +2°C° 0 mm 3 mps 712 mmHg 52%
    07:00 +2°C° 0 mm 3 mps 712 mmHg 51%
    08:00 +2°C° 0 mm 3 mps 712 mmHg 51%
    09:00 +4°C° 0 mm 3 mps 711 mmHg 47%
    10:00 +7°C° 0 mm 3 mps 710 mmHg 43%
    11:00 +8°C° 0 mm 4 mps 709 mmHg 39%
    12:00 +10°C° 0 mm 4 mps 709 mmHg 37%
    13:00 +11°C° 0 mm 4 mps 708 mmHg 35%
    14:00 +11°C° 0 mm 4 mps 707 mmHg 33%
    15:00 +11°C° 0 mm 4 mps 707 mmHg 35%
    16:00 +10°C° 0 mm 4 mps 707 mmHg 37%
    17:00 +10°C° 0 mm 4 mps 707 mmHg 39%
    18:00 +8°C° 0 mm 4 mps 707 mmHg 40%
    19:00 +6°C° 0 mm 4 mps 707 mmHg 42%
    20:00 +5°C° 0 mm 4 mps 707 mmHg 43%
    21:00 +5°C° 0 mm 4 mps 706 mmHg 42%
    22:00 +4°C° 0 mm 4 mps 705 mmHg 41%
    23:00 +4°C° 0 mm 3 mps 705 mmHg 41%

    Tomorrow, 17 February, Sunday

    Time Temperature Precipitation Wind Pressure Humidity
    00:00 +4°C° 0 mm 3 mps 704 mmHg 41%
    01:00 +4°C° 0 mm 3 mps 703 mmHg 42%
    02:00 +3°C° 0 mm 3 mps 702 mmHg 42%
    03:00 +4°C° 0 mm 3 mps 701 mmHg 42%
    04:00 +4°C° 0 mm 3 mps 701 mmHg 41%
    05:00 +5°C° 0 mm 2 mps 700 mmHg 41%
    06:00 +5°C° 0 mm 2 mps 699 mmHg 41%
    07:00 +5°C° 0 mm 2 mps 698 mmHg 41%
    08:00 +5°C° 0 mm 2 mps 698 mmHg 41%
    09:00 +6°C° 0 mm 2 mps 697 mmHg 41%
    10:00 +7°C° 0 mm 2 mps 697 mmHg 41%
    11:00 +8°C° 0 mm 2 mps 696 mmHg 41%
    12:00 +8°C° 0 mm 2 mps 697 mmHg 40%
    13:00 +9°C° 0 mm 2 mps 697 mmHg 39%
    14:00 +10°C° 0 mm 2 mps 697 mmHg 38%
    15:00 +9°C° 0 mm 2 mps 698 mmHg 38%
    16:00 +9°C° 0 mm 2 mps 698 mmHg 39%
    17:00 +9°C° 0 mm 1 mps 699 mmHg 39%
    18:00 +9°C° 0.3 mm 1 mps 700 mmHg 45%
    19:00 +7°C° 0.3 mm 2 mps 701 mmHg 50%
    20:00 +6°C° 0.3 mm 2 mps 702 mmHg 56%
    21:00 +6°C° 0.7 mm 2 mps 702 mmHg 61%
    22:00 +6°C° 0.7 mm 1 mps 702 mmHg 66%
    23:00 +6°C° 0.7 mm 1 mps 702 mmHg 71%

    Day after tomorrow, 18 February, Monday

    Time Temperature Precipitation Wind Pressure Humidity
    00:00 +5°C° 0.6 mm 2 mps 702 mmHg 73%
    01:00 +4°C° 0.6 mm 2 mps 702 mmHg 76%
    02:00 +4°C° 0.6 mm 2 mps 702 mmHg 78%
    03:00 +4°C° 0.3 mm 2 mps 702 mmHg 77%
    04:00 +5°C° 0.3 mm 1 mps 702 mmHg 77%
    05:00 +5°C° 0.3 mm 1 mps 702 mmHg 77%
    06:00 +5°C° 0.1 mm 1 mps 702 mmHg 77%
    07:00 +5°C° 0.1 mm 1 mps 702 mmHg 76%
    08:00 +4°C° 0.1 mm 0 mps 702 mmHg 76%
    09:00 +6°C° 0 mm 1 mps 701 mmHg 72%
    10:00 +6°C° 0 mm 1 mps 701 mmHg 68%
    11:00 +7°C° 0 mm 1 mps 700 mmHg 64%
    12:00 +8°C° 0 mm 1 mps 699 mmHg 60%
    13:00 +8°C° 0 mm 2 mps 699 mmHg 57%
    14:00 +8°C° 0 mm 2 mps 698 mmHg 53%
    15:00 +8°C° 0 mm 2 mps 699 mmHg 54%
    16:00 +8°C° 0 mm 2 mps 699 mmHg 55%
    17:00 +8°C° 0 mm 3 mps 700 mmHg 56%
    18:00 +7°C° 0 mm 3 mps 701 mmHg 61%
    19:00 +5°C° 0 mm 3 mps 701 mmHg 67%
    20:00 +4°C° 0 mm 3 mps 702 mmHg 72%
    21:00 +5°C° 0.1 mm 2 mps 703 mmHg 74%
    22:00 +6°C° 0.1 mm 1 mps 703 mmHg 76%
    23:00 +4°C° 0.1 mm 0 mps 703 mmHg 78%

    19 February, Tuesday

    Time Temperature Precipitation Wind Pressure Humidity
    00:00 +4°C° 0 mm 0 mps 703 mmHg 80%
    01:00 +4°C° 0 mm 0 mps 704 mmHg 81%
    02:00 +3°C° 0 mm 0 mps 704 mmHg 83%
    03:00 +3°C° 0 mm 0 mps 704 mmHg 83%
    04:00 +3°C° 0 mm 0 mps 704 mmHg 84%
    05:00 +3°C° 0 mm 1 mps 704 mmHg 84%
    06:00 +4°C° 0 mm 1 mps 705 mmHg 82%
    07:00 +4°C° 0 mm 1 mps 705 mmHg 79%
    08:00 +4°C° 0 mm 1 mps 705 mmHg 76%
    09:00 +5°C° 0 mm 1 mps 704 mmHg 67%
    10:00 +7°C° 0 mm 1 mps 704 mmHg 59%
    11:00 +8°C° 0 mm 1 mps 703 mmHg 50%
    12:00 +9°C° 0 mm 1 mps 703 mmHg 46%
    13:00 +10°C° 0 mm 1 mps 702 mmHg 42%
    14:00 +11°C° 0 mm 1 mps 702 mmHg 38%
    15:00 +11°C° 0 mm 1 mps 702 mmHg 39%
    16:00 +11°C° 0 mm 1 mps 702 mmHg 40%
    17:00 +11°C° 0 mm 1 mps 702 mmHg 40%
    18:00 +9°C° 0 mm 2 mps 703 mmHg 43%
    19:00 +7°C° 0 mm 2 mps 704 mmHg 45%
    20:00 +6°C° 0 mm 2 mps 705 mmHg 48%
    21:00 +5°C° 0 mm 3 mps 705 mmHg 47%
    22:00 +4°C° 0 mm 3 mps 705 mmHg 46%
    23:00 +4°C° 0 mm 3 mps 706 mmHg 46%

    20 February, Wednesday

    Time Temperature Precipitation Wind Pressure Humidity
    00:00 +5°C° 0 mm 2 mps 706 mmHg 45%
    01:00 +4°C° 0 mm 2 mps 706 mmHg 44%
    02:00 +4°C° 0 mm 2 mps 706 mmHg 44%
    03:00 +4°C° 0 mm 2 mps 706 mmHg 44%
    04:00 +3°C° 0 mm 2 mps 706 mmHg 45%
    05:00 +3°C° 0 mm 2 mps 707 mmHg 45%
    06:00 +3°C° 0 mm 2 mps 707 mmHg 45%
    07:00 +4°C° 0 mm 2 mps 707 mmHg 44%
    08:00 +4°C° 0 mm 2 mps 707 mmHg 44%
    09:00 +5°C° 0 mm 2 mps 707 mmHg 40%
    10:00 +7°C° 0 mm 2 mps 706 mmHg 36%
    11:00 +9°C° 0 mm 1 mps 706 mmHg 32%
    12:00 +10°C° 0 mm 1 mps 705 mmHg 31%
    13:00 +10°C° 0 mm 2 mps 705 mmHg 30%
    14:00 +12°C° 0 mm 2 mps 705 mmHg 29%
    15:00 +10°C° 0 mm 2 mps 705 mmHg 31%
    16:00 +10°C° 0 mm 2 mps 705 mmHg 33%
    17:00 +10°C° 0 mm 2 mps 705 mmHg 35%
    18:00 +8°C° 0 mm 3 mps 706 mmHg 40%
    19:00 +7°C° 0 mm 3 mps 707 mmHg 45%
    20:00 +5°C° 0 mm 3 mps 708 mmHg 50%
    21:00 +4°C° 0 mm 3 mps 708 mmHg 58%
    22:00 +3°C° 0 mm 3 mps 708 mmHg 66%
    23:00 +4°C° 0 mm 2 mps 708 mmHg 74%

    21 February, Thursday

    Time Temperature Precipitation Wind Pressure Humidity
    00:00 +3°C° 0 mm 2 mps 708 mmHg 75%
    01:00 +3°C° 0 mm 2 mps 708 mmHg 77%
    02:00 +3°C° 0 mm 2 mps 708 mmHg 78%
    03:00 +2°C° 0.1 mm 2 mps 708 mmHg 78%
    04:00 +2°C° 0.1 mm 2 mps 708 mmHg 78%
    05:00 +2°C° 0.1 mm 2 mps 708 mmHg 78%
    06:00 +2°C° 0.2 mm 2 mps 708 mmHg 79%
    07:00 +2°C° 0.2 mm 2 mps 709 mmHg 80%
    08:00 +1°C° 0.2 mm 2 mps 709 mmHg 81%
    09:00 +2°C° 0.2 mm 2 mps 708 mmHg 80%
    10:00 +1°C° 0.2 mm 3 mps 708 mmHg 80%
    11:00 +1°C° 0.2 mm 3 mps 708 mmHg 79%
    12:00 +1°C° 0.2 mm 3 mps 708 mmHg 79%
    13:00 +1°C° 0.2 mm 3 mps 708 mmHg 79%
    14:00 +1°C° 0.2 mm 3 mps 707 mmHg 79%
    15:00 +1°C° 0.3 mm 3 mps 708 mmHg 80%
    16:00 +1°C° 0.3 mm 3 mps 709 mmHg 80%
    17:00 +2°C° 0.3 mm 2 mps 709 mmHg 80%
    18:00 +2°C° 0.4 mm 2 mps 710 mmHg 81%
    19:00 +1°C° 0.4 mm 2 mps 711 mmHg 83%
    20:00 +1°C° 0.4 mm 2 mps 711 mmHg 84%
    21:00 +1°C° 0.4 mm 2 mps 712 mmHg 86%
    22:00 -1°C° 0.4 mm 2 mps 712 mmHg 87%
    23:00 -1°C° 0.4 mm 2 mps 712 mmHg 89%
    Show more